Air Resources Laboratory banner image
Air Resources Laboratory web site National Oceanic and Atmospheric Administration (NOAA)

wy roundup


Office: CYS

ASUS45 KCYS 170210
RWRWY

WYOMING REGIONAL WEATHER ROUNDUP
NATIONAL WEATHER SERVICE CHEYENNE WY
800 PM MDT MON JUL 16 2018

NOTE:  "FAIR" INDICATES FEW OR NO CLOUDS BELOW 12,000 FEET
WITH NO SIGNIFICANT WEATHER AND/OR OBSTRUCTIONS TO VISIBILITY.

WYZ001-170300-
YELLOWSTONE NATIONAL PARK

CITY           SKY/WX    TMP DP  RH WIND       PRES   REMARKS
LK YELLOWSTONE   N/A     62  43  49 CALM      30.41S
W YELLOWSTONE  NOT AVBL

$$
WYZ002>013-054>058-071-098>099-170300-
NORTHERN WYOMING

CITY           SKY/WX    TMP DP  RH WIND       PRES   REMARKS
JACKSON        MOCLDY    62  50  64 E16       30.36R
CODY           FAIR      75  50  41 CALM      30.20R
GREYBULL       FAIR      85  49  28 NW12      30.08R
WORLAND        FAIR      81  54  39 NE5       30.10R
SHERIDAN       FAIR      80  53  39 SE3       30.12R
BUFFALO        FAIR      78  53  41 CALM      30.20S
GILLETTE       FAIR      74  58  57 SW5       30.15S
HULETT         FAIR      73  63  68 E3        30.14F
NEWCASTLE      FAIR      72  57  60 CALM      30.17R

$$
WYZ014>020-022>026-101>103-170300-
CENTRAL WYOMING

CITY           SKY/WX    TMP DP  RH WIND       PRES   REMARKS
BIG PINEY      FAIR      76  37  24 NW13      30.32R
PINEDALE       FAIR      73  41  31 W6        30.32R
DUBOIS         MOCLDY    72  37  28 NW35G51   30.36R
LANDER         FAIR      82  48  30 N6        30.16R
RIVERTON       FAIR      82  49  31 E17G30    30.16R
CASPER         FAIR      66  57  72 E16       30.23F
DOUGLAS        FAIR      64  62  93 N9        30.24F

$$
WYZ021-027>030-104>119-170300-
SOUTHERN WYOMING

CITY           SKY/WX    TMP DP  RH WIND       PRES   REMARKS
EVANSTON       FAIR      82  44  26 NE7       30.27S
KEMMERER       FAIR      72  37  28 NW21G30   30.32R
FORT BRIDGER   FAIR      82  37  19 CALM      30.30F
ROCK SPRINGS   FAIR      81  35  19 NW7       30.26S
DIXON          FAIR      83  38  19 N14       30.27R
RAWLINS        FAIR      74  49  41 NE14G22   30.28R
SARATOGA       FAIR      72  43  35 NE9G17    30.31R
LARAMIE        FAIR      69  48  47 NE7       30.31S
CHEYENNE       FAIR      73  60  63 W7        30.23R
TORRINGTON     FAIR      80  67  64 NE6       30.08R
PINE BLUFFS    FAIR      81  54  39 CALM      30.15R

$$